Location: Gorze? G�rny
(49.8500°N, 19.5000°E)
Time: 04:29:59
(UTC+00:00)

Meteor 1-11 Rocket - Pass Details

Date: 13 May 2021
Orbit: 831 x 916 km, 81.2° (Epoch: 20 June)

Event Time Altitude Azimuth Distance (km) Brightness Sun altitude
Rises 20:25:31 0° 345° (NNW) 3,567 8.4 -15.5°
Reaches altitude 10° 20:28:01 10° 344° (NNW) 2,619 7.5 -15.7°
Maximum altitude 20:33:57 68° 263° (W) 979 4.1 -16.2°
Enters shadow 20:38:10 20° 184° (S) 1,978 5.1 -16.6°
